(°C)
-1°
(°C)
-4°
-2°
-0°
N
NNE
NNE
NE
NE
NE
NE
(km/h)
4-16
4-16
6-18
9-19
10-20
10-19
10-17
(mm)
0
0
0
0
0
0
0
(%)
0
0
0
0
0
0
0

Elevația soarelui

/ 14.2°
sun-icon
UV 2
07:09
19:02
Al doilea pătrar (264°)
21:51
15:29

METAR pentru 55.27°N 86.11°E (UNEE)

Ora Condiții Temperatură/
Punctul de rouă
Vânt Vizibilitate Vremea Nori Presiune Schimbă Brut
LIFR -2°C / -2°C 330º 6kt 50m. Runway 23: Visual range is 125m. freezing Fog Smoke Vertical Visibility of 0ft. 1020 No Significant change UNEE 280130Z 33003MPS 0050 R23/0125N FZFG FU VV001 M02/M02 Q1020 R23/CLRD60 NOSIG RMK QBB030 QFE742
LIFR -3°C / -3°C 330º 6kt 50m. Runway 23: Visual range is 75m. freezing Fog Smoke Vertical Visibility of 0ft. 1020 No Significant change UNEE 280100Z 33003MPS 0050 0000SE R23/0075N FZFG FU VV001 M03/M03 Q1020 R23/CLRD60 NOSIG RMK QBB030 QFE742
LIFR -3°C / -3°C 320º 6kt 140m. Runway 23: Visual range is 225m. freezing Fog Smoke Vertical Visibility of 0ft. 1020 No Significant change UNEE 280030Z 32003MPS 0150 0050SW R23/0225N FZFG FU FEW001 M03/M03 Q1020 R23/CLRD60 NOSIG RMK QBB030 QFE742
LIFR -4°C / -4°C 320º 4kt 50m. Runway 23: Visual range is 225m. freezing Fog Smoke Vertical Visibility of 0ft. 1020 No Significant change UNEE 280000Z 32002MPS 0050 R23/0225N FZFG FU FEW001 M04/M04 Q1020 R23/CLRD60 NOSIG RMK QBB030 QFE742
LIFR -3°C / -3°C 330º 4kt 50m. Runway 23: Visual range is 225m. freezing Fog Smoke Vertical Visibility of 0ft. 1020 No Significant change UNEE 272330Z 33002MPS 0050 R23/0225N FZFG FU FEW001 M03/M03 Q1020 R23/CLRD60 NOSIG RMK QBB030 QFE742
LIFR -2°C / -2°C 340º 6kt 400m. Runway 23: Visual range is 900m and decreasing. freezing Fog Vertical Visibility of 0ft. 1021 No Significant change UNEE 272300Z 34003MPS 0400 0350NE R23/0900D FZFG FEW001 M02/M02 Q1021 R23/CLRD60 NOSIG RMK QBB030 QFE742
MVFR -2°C / -2°C 350º 6kt 8000m - Few Clouds 100ft 1021 No Significant change UNEE 272230Z 35003MPS 8000 FEW001 M02/M02 Q1021 R23/CLRD60 NOSIG RMK QBB030 QFE742
LIFR -1°C / -2°C 340º 4kt 1500m. Runway 23: Visual range is 2000m and decreasing. freezing Fog Vertical Visibility of 0ft. 1021 No Significant change UNEE 272200Z 34002MPS 1500 0650SE R23/P2000D FZFG SCT001 M01/M02 Q1021 R23/CLRD60 NOSIG RMK QBB050 QFE742
LIFR -1°C / -1°C 330º 2kt 350m freezing Fog Vertical Visibility of 0ft. 1021 No Significant change UNEE 272130Z 33001MPS 0350 0200SW FZFG SCT001 M01/M01 Q1021 R23/CLRD60 NOSIG RMK QBB040 QFE743
MVFR 0°C / -1°C variable 0kt 6000m Mist Vertical Visibility of 0ft. 1021 No Significant change UNEE 272100Z 00000MPS 6000 1100SW BR FEW001 M00/M01 Q1021 R23/CLRD60 NOSIG RMK QBB050 QFE743
LIFR 0°C / -1°C variable 0kt 260m freezing Fog Vertical Visibility of 0ft. 1021 No Significant change UNEE 272030Z 00000MPS 0250 0150SE FZFG NSC M00/M01 Q1021 R23/CLRD60 NOSIG RMK QFE743
LIFR -1°C / -1°C variable 0kt 900m freezing Fog Vertical Visibility of 0ft. 1022 No Significant change UNEE 272000Z 00000MPS 0900 0600SE FZFG NSC M01/M01 Q1022 R23/CLRD60 NOSIG RMK QFE743
VFR 0°C / 0°C variable 0kt >10km - Clouds and Visibility OK 1022 No Significant change UNEE 271930Z 00000MPS CAVOK 00/M00 Q1022 R23/CLRD60 NOSIG RMK QFE743
VFR 0°C / 0°C variable 0kt >10km - Clouds and Visibility OK 1022 No Significant change UNEE 271900Z 00000MPS CAVOK 00/M00 Q1022 R23/CLRD60 NOSIG RMK QFE743
VFR 0°C / 0°C variable 0kt >10km - Clouds and Visibility OK 1022 No Significant change UNEE 271830Z 00000MPS CAVOK M00/M00 Q1022 R23/CLRD60 NOSIG RMK QFE743
VFR 0°C / 0°C variable 0kt >10km - Clouds and Visibility OK 1022 No Significant change UNEE 271800Z 00000MPS CAVOK 00/M00 Q1022 R23/CLRD60 NOSIG RMK QFE744
VFR 0°C / 0°C 150º 4kt >10km - Clouds and Visibility OK 1023 No Significant change UNEE 271730Z 15002MPS CAVOK 00/M00 Q1023 R23/CLRD60 NOSIG RMK QFE744
VFR 0°C / 0°C 170º 2kt 9000m - Clear 1023 No Significant change UNEE 271700Z 17001MPS 9000 NSC 00/M00 Q1023 R23/CLRD60 NOSIG RMK QFE744
VFR 1°C / 0°C 140º 2kt >10km - Clear 1023 No Significant change UNEE 271630Z 14001MPS 9999 NSC 01/M00 Q1023 R23/CLRD60 NOSIG RMK QFE744
VFR 0°C / 0°C 90º 2kt >10km - Few Clouds 4900ft 1023 No Significant change UNEE 271600Z 09001MPS 9999 FEW049 00/M00 Q1023 R23/CLRD60 NOSIG RMK QFE744
VFR 1°C / 0°C 100º 2kt >10km - Scattered Clouds 4900ft 1023 No Significant change UNEE 271530Z 10001MPS 9999 SCT049 01/00 Q1023 R23/CLRD60 NOSIG RMK QFE744
VFR 1°C / 0°C 100º 2kt >10km - Scattered Clouds 4900ft 1024 No Significant change UNEE 271500Z 10001MPS 9999 SCT049 01/00 Q1024 R23/CLRD60 NOSIG RMK QFE745
VFR 2°C / 0°C 160º 4kt >10km - Scattered Clouds 4300ft 1024 No Significant change UNEE 271430Z 16002MPS 9999 SCT043 02/00 Q1024 R23/CLRD60 NOSIG RMK QFE745
VFR 2°C / 0°C 170º 4kt >10km - Scattered Clouds 4300ft 1024 No Significant change UNEE 271400Z 17002MPS 9999 SCT043 02/00 Q1024 R23/CLRD60 NOSIG RMK QFE745

LIFR

-2°C / -2°C

[Mai mult]
Vânt 330º 6kt
Vizibilitate 50m. Runway 23: Visual range is 125m.
Vremea freezing Fog Smoke
Nori Vertical Visibility of 0ft.
Presiune 1020
Schimbă No Significant change
Brut UNEE 280130Z 33003MPS 0050 R23/0125N FZFG FU VV001 M02/M02 Q1020 R23/CLRD60 NOSIG RMK QBB030 QFE742

LIFR

-3°C / -3°C

[Mai mult]
Vânt 330º 6kt
Vizibilitate 50m. Runway 23: Visual range is 75m.
Vremea freezing Fog Smoke
Nori Vertical Visibility of 0ft.
Presiune 1020
Schimbă No Significant change
Brut UNEE 280100Z 33003MPS 0050 0000SE R23/0075N FZFG FU VV001 M03/M03 Q1020 R23/CLRD60 NOSIG RMK QBB030 QFE742

LIFR

-3°C / -3°C

[Mai mult]
Vânt 320º 6kt
Vizibilitate 140m. Runway 23: Visual range is 225m.
Vremea freezing Fog Smoke
Nori Vertical Visibility of 0ft.
Presiune 1020
Schimbă No Significant change
Brut UNEE 280030Z 32003MPS 0150 0050SW R23/0225N FZFG FU FEW001 M03/M03 Q1020 R23/CLRD60 NOSIG RMK QBB030 QFE742

LIFR

-4°C / -4°C

[Mai mult]
Vânt 320º 4kt
Vizibilitate 50m. Runway 23: Visual range is 225m.
Vremea freezing Fog Smoke
Nori Vertical Visibility of 0ft.
Presiune 1020
Schimbă No Significant change
Brut UNEE 280000Z 32002MPS 0050 R23/0225N FZFG FU FEW001 M04/M04 Q1020 R23/CLRD60 NOSIG RMK QBB030 QFE742

LIFR

-3°C / -3°C

[Mai mult]
Vânt 330º 4kt
Vizibilitate 50m. Runway 23: Visual range is 225m.
Vremea freezing Fog Smoke
Nori Vertical Visibility of 0ft.
Presiune 1020
Schimbă No Significant change
Brut UNEE 272330Z 33002MPS 0050 R23/0225N FZFG FU FEW001 M03/M03 Q1020 R23/CLRD60 NOSIG RMK QBB030 QFE742

LIFR

-2°C / -2°C

[Mai mult]
Vânt 340º 6kt
Vizibilitate 400m. Runway 23: Visual range is 900m and decreasing.
Vremea freezing Fog
Nori Vertical Visibility of 0ft.
Presiune 1021
Schimbă No Significant change
Brut UNEE 272300Z 34003MPS 0400 0350NE R23/0900D FZFG FEW001 M02/M02 Q1021 R23/CLRD60 NOSIG RMK QBB030 QFE742

MVFR

-2°C / -2°C

[Mai mult]
Vânt 350º 6kt
Vizibilitate 8000m
Vremea -
Nori Few Clouds 100ft
Presiune 1021
Schimbă No Significant change
Brut UNEE 272230Z 35003MPS 8000 FEW001 M02/M02 Q1021 R23/CLRD60 NOSIG RMK QBB030 QFE742

LIFR

-1°C / -2°C

[Mai mult]
Vânt 340º 4kt
Vizibilitate 1500m. Runway 23: Visual range is 2000m and decreasing.
Vremea freezing Fog
Nori Vertical Visibility of 0ft.
Presiune 1021
Schimbă No Significant change
Brut UNEE 272200Z 34002MPS 1500 0650SE R23/P2000D FZFG SCT001 M01/M02 Q1021 R23/CLRD60 NOSIG RMK QBB050 QFE742

LIFR

-1°C / -1°C

[Mai mult]
Vânt 330º 2kt
Vizibilitate 350m
Vremea freezing Fog
Nori Vertical Visibility of 0ft.
Presiune 1021
Schimbă No Significant change
Brut UNEE 272130Z 33001MPS 0350 0200SW FZFG SCT001 M01/M01 Q1021 R23/CLRD60 NOSIG RMK QBB040 QFE743

MVFR

0°C / -1°C

[Mai mult]
Vânt variable 0kt
Vizibilitate 6000m
Vremea Mist
Nori Vertical Visibility of 0ft.
Presiune 1021
Schimbă No Significant change
Brut UNEE 272100Z 00000MPS 6000 1100SW BR FEW001 M00/M01 Q1021 R23/CLRD60 NOSIG RMK QBB050 QFE743

LIFR

0°C / -1°C

[Mai mult]
Vânt variable 0kt
Vizibilitate 260m
Vremea freezing Fog
Nori Vertical Visibility of 0ft.
Presiune 1021
Schimbă No Significant change
Brut UNEE 272030Z 00000MPS 0250 0150SE FZFG NSC M00/M01 Q1021 R23/CLRD60 NOSIG RMK QFE743

LIFR

-1°C / -1°C

[Mai mult]
Vânt variable 0kt
Vizibilitate 900m
Vremea freezing Fog
Nori Vertical Visibility of 0ft.
Presiune 1022
Schimbă No Significant change
Brut UNEE 272000Z 00000MPS 0900 0600SE FZFG NSC M01/M01 Q1022 R23/CLRD60 NOSIG RMK QFE743

VFR

0°C / 0°C

[Mai mult]
Vânt variable 0kt
Vizibilitate >10km
Vremea -
Nori Clouds and Visibility OK
Presiune 1022
Schimbă No Significant change
Brut UNEE 271930Z 00000MPS CAVOK 00/M00 Q1022 R23/CLRD60 NOSIG RMK QFE743

VFR

0°C / 0°C

[Mai mult]
Vânt variable 0kt
Vizibilitate >10km
Vremea -
Nori Clouds and Visibility OK
Presiune 1022
Schimbă No Significant change
Brut UNEE 271900Z 00000MPS CAVOK 00/M00 Q1022 R23/CLRD60 NOSIG RMK QFE743

VFR

0°C / 0°C

[Mai mult]
Vânt variable 0kt
Vizibilitate >10km
Vremea -
Nori Clouds and Visibility OK
Presiune 1022
Schimbă No Significant change
Brut UNEE 271830Z 00000MPS CAVOK M00/M00 Q1022 R23/CLRD60 NOSIG RMK QFE743

VFR

0°C / 0°C

[Mai mult]
Vânt variable 0kt
Vizibilitate >10km
Vremea -
Nori Clouds and Visibility OK
Presiune 1022
Schimbă No Significant change
Brut UNEE 271800Z 00000MPS CAVOK 00/M00 Q1022 R23/CLRD60 NOSIG RMK QFE744

VFR

0°C / 0°C

[Mai mult]
Vânt 150º 4kt
Vizibilitate >10km
Vremea -
Nori Clouds and Visibility OK
Presiune 1023
Schimbă No Significant change
Brut UNEE 271730Z 15002MPS CAVOK 00/M00 Q1023 R23/CLRD60 NOSIG RMK QFE744

VFR

0°C / 0°C

[Mai mult]
Vânt 170º 2kt
Vizibilitate 9000m
Vremea -
Nori Clear
Presiune 1023
Schimbă No Significant change
Brut UNEE 271700Z 17001MPS 9000 NSC 00/M00 Q1023 R23/CLRD60 NOSIG RMK QFE744

VFR

1°C / 0°C

[Mai mult]
Vânt 140º 2kt
Vizibilitate >10km
Vremea -
Nori Clear
Presiune 1023
Schimbă No Significant change
Brut UNEE 271630Z 14001MPS 9999 NSC 01/M00 Q1023 R23/CLRD60 NOSIG RMK QFE744

VFR

0°C / 0°C

[Mai mult]
Vânt 90º 2kt
Vizibilitate >10km
Vremea -
Nori Few Clouds 4900ft
Presiune 1023
Schimbă No Significant change
Brut UNEE 271600Z 09001MPS 9999 FEW049 00/M00 Q1023 R23/CLRD60 NOSIG RMK QFE744

VFR

1°C / 0°C

[Mai mult]
Vânt 100º 2kt
Vizibilitate >10km
Vremea -
Nori Scattered Clouds 4900ft
Presiune 1023
Schimbă No Significant change
Brut UNEE 271530Z 10001MPS 9999 SCT049 01/00 Q1023 R23/CLRD60 NOSIG RMK QFE744

VFR

1°C / 0°C

[Mai mult]
Vânt 100º 2kt
Vizibilitate >10km
Vremea -
Nori Scattered Clouds 4900ft
Presiune 1024
Schimbă No Significant change
Brut UNEE 271500Z 10001MPS 9999 SCT049 01/00 Q1024 R23/CLRD60 NOSIG RMK QFE745

VFR

2°C / 0°C

[Mai mult]
Vânt 160º 4kt
Vizibilitate >10km
Vremea -
Nori Scattered Clouds 4300ft
Presiune 1024
Schimbă No Significant change
Brut UNEE 271430Z 16002MPS 9999 SCT043 02/00 Q1024 R23/CLRD60 NOSIG RMK QFE745

VFR

2°C / 0°C

[Mai mult]
Vânt 170º 4kt
Vizibilitate >10km
Vremea -
Nori Scattered Clouds 4300ft
Presiune 1024
Schimbă No Significant change
Brut UNEE 271400Z 17002MPS 9999 SCT043 02/00 Q1024 R23/CLRD60 NOSIG RMK QFE745

TAF pentru 55.27°N 86.11°E (UNEE)

From till


From till Wind 30º 6kt. Gust 16kt. Visibility 144.841m. freezing Fog . Broken Clouds 100ft.
Becoming from till Wind 30º 6kt. Gust 16kt. Visibility 10km or more. Scattered Clouds 4000ft.

Brut: TAF AMD UNEE 280000Z 2800/2824 03003G08MPS 0150 FZFG BKN001 BECMG 2803/2804 9999 NSW SCT040

Imagini satelitare și ploaie pentru 55.27°N 86.11°E

Markerul cu locaţia este poziţionat pe 55.27°N 86.11°E. [Mai mult]

Imaginea satelitară în timp real combină lumina vizibilă din timpul zilei cu radiația cu infraroșu din timpul nopții. Pe timp de noapte, imaginea nu este întunecată, deoarece radiația cu infraroșu poate detecta diferențele de temperatură. Din păcate, norii joși și ceața sunt greu de recunoscut față de temperatura de la sol, din această cauză putând fi invizibili pe timp de noapte. Imaginile satelitare Meteosat pentru Europa sunt actualizate în timp real din 5 în 5 minute. Imaginile GOES-16/GOES-17 (America de Nord și de Sud) și Himawari (Asia) sunt actualizate din 10 în 10 minute.

Toate drepturile rezervate 2021 EUMETSAT / meteoblue. / Toate drepturile rezervate 2021 meteoblue

Radar și nowcast de precipitații pentru 55.27°N 86.11°E

Burniță
Ușoară
Moderat
Greu
Foarte greu
Grindină

Markerul de locație este plasat în 55.27°N 86.11°E. Această animație arată radarul de precipitații pentru ultima oră, precum și o 1h prognoză. Ploaia sau ninsoarea slabă ar putea fi invizibilă pentru radar. Intensitatea precipitațiilor este codificată prin culori, de la albastru deschis la portocaliu.